This is the latest recevied weather packets stored in our database for station/object N9BID. If no packets are shown the sender has not sent any weather packets the latest 10 day(s).
| Time | Temp. | Humidity | Pressure | Rain* | Wind** | Luminosity | Snow |
|---|---|---|---|---|---|---|---|
| 1777667981 | 8.33° C | 47% | 1009.9 hPa | 0 mm | - | 308 W/m² | - |
| 1777667678 | 7.22° C | 48% | 1009.8 hPa | 0 mm | - | 808 W/m² | - |
| 1777667376 | 8.33° C | 51% | 1009.8 hPa | 0 mm | - | 200 W/m² | - |
| 1777667073 | 8.33° C | 46% | 1009.7 hPa | 0 mm | - | 507 W/m² | - |
| 1777666769 | 7.78° C | 49% | 1009.8 hPa | 0 mm | - | 793 W/m² | - |
| 1777666466 | 7.22° C | 49% | 1010 hPa | 0 mm | - | 216 W/m² | - |
| 1777666163 | 8.33° C | 47% | 1009.9 hPa | 0 mm | - | 554 W/m² | - |
| 1777665860 | 7.22° C | 50% | 1010 hPa | 0 mm | - | 631 W/m² | - |
| 1777665558 | 7.22° C | 48% | 1010.1 hPa | 0 mm | - | 301 W/m² | - |
| 1777665254 | 7.22° C | 50% | 1009.9 hPa | 0 mm | - | 275 W/m² | - |
| 1777664950 | 6.67° C | 49% | 1010 hPa | 0 mm | - | 381 W/m² | - |
| 1777664646 | 6.67° C | 48% | 1010.1 hPa | 0 mm | - | 291 W/m² | - |
| 1777664342 | 6.67° C | 47% | 1010.1 hPa | 0 mm | - | 657 W/m² | - |
| 1777664041 | 6.67° C | 50% | 1010.2 hPa | 0 mm | - | 234 W/m² | - |
| 1777663738 | 6.67° C | 51% | 1010.1 hPa | 0 mm | - | 343 W/m² | - |
| 1777663435 | 7.78° C | 47% | 1009.8 hPa | 0 mm | - | 323 W/m² | - |
| 1777663132 | 7.22° C | 51% | 1009.9 hPa | 0 mm | - | 524 W/m² | - |
| 1777662829 | 7.22° C | 54% | 1009.9 hPa | 0 mm | - | 275 W/m² | - |
| 1777662526 | 6.67° C | 52% | 1010 hPa | 0 mm | - | 547 W/m² | - |
| 1777662222 | 6.11° C | 52% | 1009.8 hPa | 0 mm | - | 272 W/m² | - |
| 1777661917 | 6.11° C | 50% | 1009.9 hPa | 0 mm | - | 255 W/m² | - |
| 1777661613 | 6.67° C | 57% | 1009.9 hPa | 0 mm | - | 250 W/m² | - |
| 1777661309 | 6.67° C | 56% | 1009.9 hPa | 0 mm | - | 310 W/m² | - |
| 1777661005 | 6.67° C | 53% | 1009.8 hPa | 0 mm | - | 290 W/m² | - |
| 1777660701 | 6.67° C | 54% | 1009.8 hPa | 0 mm | - | 257 W/m² | - |
* Rain latest hour (hover to see other rain measurements)
** Current wind speed in m/s (hover to see current wind gust speed)